Macomb, IL

1:39 PM CDT on July 24, 2017 (GMT -0500)
Macomb Municipal

Weather History for KMQB - January, 2013

Change the Weather History Date:

Sunday, January 13, 2013

  Actual Average (KBRL) Record (KBRL)
Temperature  
Mean Temperature 16 °F -  
Max Temperature 23 °F 34 °F 56 °F (1961)
Min Temperature 9 °F 20 °F -20 °F (1912)
Degree Days  
Heating Degree Days 49    
Moisture  
Dew Point 12 °F    
Average Humidity 79    
Maximum Humidity 93    
Minimum Humidity 68    
Precipitation  
Precipitation 0.02 in - - ()
Sea Level Pressure  
Sea Level Pressure 30.15 in    
Wind  
Wind Speed 13 mph (NW)    
Max Wind Speed 20 mph    
Max Gust Speed 23 mph    
Visibility 10 miles    
Events Snow    
Averages and records for this station are not official NWS values.
T = Trace of Precipitation, MM = Missing Value Source: NWS Daily Summary

Daily Weather History Graph

Daily Weather History Graph

Search for Another Location

Airport or City:

Trip Planner

Search our weather history database for the weather conditions in past years. The results will help you decide how hot, cold, wet, or windy it might be!

Date:

Astronomy

Jan. 13, 2013 Rise Set
Actual Time 7:24 AM CST 4:58 PM CST
Civil Twilight 6:54 AM CST 5:28 PM CST
Nautical Twilight 6:20 AM CST 6:02 PM CST
Astronomical Twilight 5:48 AM CST 6:35 PM CST
Moon 8:22 AM CST (1/13) 7:38 PM CST (1/13)
Length of Visible Light 10h 34m
Length of Day
9h 33m
Waxing Crescent, 5% of the Moon is Illuminated
Jan 13
Waxing Crescent
Jan 18
First Quarter
Jan 26
Full
Feb 3
Last Quarter
Feb 10
New

Hourly Weather History & Observations

Time (CST) Temp. Windchill Dew Point Humidity Pressure Visibility Wind Dir Wind Speed Gust Speed Precip Events Conditions
12:15 AM 23.0 °F 9.6 °F 21.2 °F 93% 29.97 in 4.0 mi North 16.1 mph 21.9 mph N/A Snow Light Snow
12:35 AM 22.5 °F 11.1 °F 19.8 °F 89% 29.98 in 10.0 mi North 11.5 mph - N/A   Overcast
12:55 AM 23.0 °F 11.7 °F 21.2 °F 93% 29.98 in 10.0 mi NNW 11.5 mph - N/A   Overcast
1:15 AM 22.8 °F 10.4 °F 20.3 °F 90% 30.01 in 10.0 mi NNW 13.8 mph - N/A   Overcast
1:35 AM 22.8 °F 10.4 °F 20.1 °F 89% 30.01 in 10.0 mi NNW 13.8 mph - N/A   Overcast
1:55 AM 23.0 °F 11.7 °F 19.4 °F 86% 30.00 in 10.0 mi North 11.5 mph - N/A   Overcast
2:15 AM 22.1 °F 10.6 °F 18.9 °F 87% 30.00 in 10.0 mi North 11.5 mph - N/A   Overcast
2:35 AM 22.1 °F 9.5 °F 19.0 °F 88% 30.03 in 10.0 mi NW 13.8 mph 19.6 mph N/A   Overcast
2:55 AM 21.2 °F 9.5 °F 17.6 °F 86% 30.03 in 10.0 mi NNW 11.5 mph - N/A   Overcast
3:15 AM 21.7 °F 9.0 °F 17.2 °F 83% 30.04 in 10.0 mi NW 13.8 mph - N/A   Overcast
3:35 AM 21.6 °F 7.8 °F 16.2 °F 80% 30.04 in 10.0 mi NW 16.1 mph - N/A   Overcast
3:55 AM 21.2 °F 8.9 °F 14.9 °F 77% 30.06 in 10.0 mi NW 12.7 mph 18.4 mph N/A   Overcast
4:15 AM 21.0 °F 8.6 °F 14.4 °F 75% 30.07 in 10.0 mi NW 12.7 mph - N/A   Overcast
4:35 AM 20.3 °F 6.6 °F 13.8 °F 76% 30.06 in 10.0 mi NNW 15.0 mph - N/A   Overcast
4:55 AM 20.3 °F 5.2 °F 13.5 °F 75% 30.05 in 10.0 mi NW 18.4 mph - N/A   Overcast
5:15 AM 19.4 °F 5.0 °F 12.7 °F 75% 30.05 in 10.0 mi NNW 16.1 mph - N/A   Overcast
5:35 AM 19.0 °F 4.0 °F 12.6 °F 76% 30.08 in 10.0 mi NW 17.3 mph - N/A   Overcast
5:55 AM 19.4 °F 5.5 °F 12.2 °F 74% 30.06 in 10.0 mi NW 15.0 mph 19.6 mph N/A   Overcast
6:15 AM 18.5 °F 4.9 °F 11.8 °F 75% 30.06 in 10.0 mi NW 13.8 mph - N/A   Overcast
6:35 AM 18.5 °F 6.8 °F 11.7 °F 75% 30.09 in 10.0 mi NW 10.4 mph - N/A   Overcast
6:55 AM 18.3 °F 3.6 °F 10.9 °F 73% 30.07 in 10.0 mi NNW 16.1 mph - N/A   Overcast
7:15 AM 18.3 °F 4.6 °F 11.3 °F 74% 30.10 in 10.0 mi NNW 13.8 mph - N/A   Overcast
7:35 AM 18.3 °F 5.9 °F 11.7 °F 75% 30.11 in 10.0 mi NW 11.5 mph - N/A   Overcast
7:55 AM 18.3 °F 5.9 °F 12.4 °F 78% 30.10 in 10.0 mi NW 11.5 mph - N/A   Overcast
8:15 AM 18.3 °F 4.6 °F 12.0 °F 76% 30.13 in 10.0 mi NW 13.8 mph - N/A   Overcast
8:35 AM 18.3 °F 4.6 °F 12.4 °F 78% 30.14 in 10.0 mi NW 13.8 mph 20.7 mph N/A   Overcast
8:55 AM 17.6 °F 4.3 °F 11.8 °F 78% 30.15 in 10.0 mi NW 12.7 mph - N/A   Overcast
9:15 AM 17.2 °F 1.7 °F 10.4 °F 75% 30.15 in 10.0 mi WNW 17.3 mph - N/A   Overcast
9:35 AM 17.2 °F 2.7 °F 10.6 °F 75% 30.13 in 10.0 mi NW 15.0 mph - N/A   Overcast
9:55 AM 17.6 °F 3.2 °F 10.4 °F 73% 30.16 in 10.0 mi WNW 15.0 mph - N/A   Overcast
10:15 AM 17.1 °F 1.0 °F 10.0 °F 74% 30.13 in 10.0 mi NW 18.4 mph 21.9 mph N/A   Overcast
10:35 AM 16.9 °F 1.7 °F 9.5 °F 73% 30.12 in 10.0 mi NW 16.1 mph 23.0 mph N/A   Overcast
10:55 AM 17.2 °F 2.2 °F 10.4 °F 75% 30.13 in 10.0 mi NW 16.1 mph 23.0 mph N/A   Overcast
11:15 AM 17.1 °F 0.6 °F 10.8 °F 76% 30.15 in 10.0 mi WNW 19.6 mph - N/A   Overcast
11:35 AM 16.9 °F 0.8 °F 10.9 °F 77% 30.14 in 10.0 mi WNW 18.4 mph - N/A   Overcast
11:55 AM 17.6 °F 1.3 °F 10.4 °F 73% 30.14 in 10.0 mi NW 19.6 mph - N/A   Mostly Cloudy
12:15 PM 17.1 °F 2.5 °F 11.5 °F 79% 30.14 in 10.0 mi WNW 15.0 mph - N/A   Overcast
12:35 PM 17.1 °F 2.5 °F 11.5 °F 79% 30.12 in 10.0 mi WNW 15.0 mph - N/A Snow Light Snow
12:55 PM 17.4 °F 3.5 °F 11.1 °F 76% 30.11 in 10.0 mi WNW 13.8 mph - N/A   Mostly Cloudy
1:15 PM 17.6 °F 4.3 °F 10.8 °F 75% 30.12 in 10.0 mi NW 12.7 mph - N/A   Mostly Cloudy
1:35 PM 17.6 °F 5.0 °F 10.9 °F 75% 30.12 in 10.0 mi NW 11.5 mph - N/A   Overcast
1:55 PM 17.6 °F 5.0 °F 10.4 °F 73% 30.13 in 10.0 mi WNW 11.5 mph - N/A   Overcast
2:15 PM 18.9 °F 5.3 °F 11.5 °F 73% 30.13 in 10.0 mi West 13.8 mph - N/A   Overcast
2:35 PM 19.0 °F 6.1 °F 11.8 °F 74% 30.14 in 10.0 mi NW 12.7 mph - N/A   Overcast
2:55 PM 18.0 °F 4.2 °F 10.9 °F 74% 30.16 in 10.0 mi NW 13.8 mph - N/A   Overcast
3:15 PM 19.4 °F 6.0 °F 11.8 °F 72% 30.17 in 10.0 mi NW 13.8 mph - N/A   Overcast
3:35 PM 19.4 °F 6.6 °F 12.2 °F 74% 30.19 in 10.0 mi NW 12.7 mph - N/A   Overcast
3:55 PM 19.4 °F 6.6 °F 10.4 °F 68% 30.20 in 10.0 mi WNW 12.7 mph - N/A   Overcast
4:15 PM 18.7 °F 7.0 °F 11.5 °F 74% 30.21 in 10.0 mi WNW 10.4 mph - N/A   Overcast
4:35 PM 18.5 °F 4.9 °F 11.1 °F 73% 30.21 in 10.0 mi WNW 13.8 mph - N/A   Overcast
4:55 PM 18.0 °F 6.1 °F 10.4 °F 72% 30.22 in 10.0 mi WNW 10.4 mph - N/A   Scattered Clouds
5:15 PM 16.9 °F 6.4 °F 10.4 °F 76% 30.24 in 10.0 mi WNW 8.1 mph - N/A   Clear
5:35 PM 14.9 °F 6.1 °F 10.2 °F 82% 30.24 in 10.0 mi WNW 5.8 mph - N/A   Clear
5:55 PM 14.5 °F 7.1 °F 9.7 °F 81% 30.25 in 10.0 mi WNW 4.6 mph - N/A   Clear
6:15 PM 14.5 °F 8.8 °F 9.5 °F 80% 30.25 in 10.0 mi WNW 3.5 mph - N/A   Clear
6:35 PM 14.4 °F 8.6 °F 9.9 °F 82% 30.26 in 10.0 mi WNW 3.5 mph - N/A   Clear
6:55 PM 12.4 °F 3.1 °F 8.2 °F 83% 30.27 in 10.0 mi West 5.8 mph - N/A   Clear
7:15 PM 13.5 °F 5.8 °F 9.5 °F 84% 30.27 in 10.0 mi West 4.6 mph - N/A   Clear
7:35 PM 14.0 °F 5.1 °F 10.4 °F 86% 30.28 in 10.0 mi West 5.8 mph - N/A   Clear
7:55 PM 12.9 °F 2.6 °F 8.4 °F 82% 30.28 in 10.0 mi WNW 6.9 mph - N/A   Clear
8:15 PM 12.0 °F 2.7 °F 8.2 °F 85% 30.28 in 10.0 mi WNW 5.8 mph - N/A   Clear
8:35 PM 11.7 °F 2.3 °F 7.5 °F 83% 30.29 in 10.0 mi NW 5.8 mph - N/A   Clear
8:55 PM 12.2 °F 2.9 °F 8.6 °F 85% 30.29 in 10.0 mi NW 5.8 mph - N/A   Clear
9:15 PM 11.8 °F 3.9 °F 7.7 °F 83% 30.30 in 10.0 mi WNW 4.6 mph - N/A   Clear
9:35 PM 10.4 °F 4.0 °F 6.8 °F 85% 30.29 in 10.0 mi WNW 3.5 mph - N/A   Clear
9:55 PM 11.5 °F 5.3 °F 7.5 °F 84% 30.29 in 10.0 mi West 3.5 mph - N/A   Clear
10:15 PM 10.9 °F 4.7 °F 7.5 °F 86% 30.30 in 10.0 mi West 3.5 mph - N/A   Clear
10:35 PM 11.1 °F 3.1 °F 7.7 °F 86% 30.31 in 10.0 mi West 4.6 mph - N/A   Clear
10:55 PM 10.4 °F -0.4 °F 7.3 °F 87% 30.31 in 10.0 mi West 6.9 mph - N/A   Clear
11:15 PM 9.7 °F -2.4 °F 6.4 °F 87% 30.31 in 10.0 mi West 8.1 mph - N/A   Clear
11:35 PM 9.9 °F -2.2 °F 6.8 °F 87% 30.30 in 10.0 mi WNW 8.1 mph - N/A   Clear
11:55 PM 11.1 °F 0.4 °F 7.7 °F 86% 30.32 in 10.0 mi WNW 6.9 mph - N/A   Clear